Location: Warner Observatory
(35.1353°N, 89.5455°W)
Time: 13:38:23
(UTC-05:00)

Amateur Radio Satellites - All Passes

Search period start: 28 June 2016 13:08
Search period end: 29 June 2016 13:08
Location: Warner Observatory, 35.1353°N, 89.5455°W

Satellite Date Start Highest point End Downlink Frequencies (MHz)
Time Altitude Azimuth
PCSat 28 Jun 13:14:57 13:19:02 22° 254° (WSW) 13:23:04 145.827
TISAT 1 28 Jun 13:19:40 13:22:46 20° 95° (E) 13:25:51 437.305
50 SAT 28 Jun 13:22:09 13:25:05 23° 289° (WNW) 13:28:00 437.505
ESTCUBE 1 28 Jun 13:25:52 13:29:10 20° 292° (WNW) 13:32:27 437.505/2401.250
Cosmos 2504 28 Jun 13:27:18 13:34:01 30° 84° (E) 13:41:06 435.465 / 435.565
AISAT 28 Jun 13:30:33 13:34:13 27° 290° (WNW) 13:37:54 437.250
UKube-1 28 Jun 13:31:30 13:35:36 43° 287° (WNW) 13:39:40 .
SPROUT 28 Jun 13:33:20 13:37:34 59° 284° (WNW) 13:41:46 437.525
BEESAT 2 28 Jun 13:37:52 13:40:28 17° 250° (WSW) 13:43:03 435.950
JAS-2 28 Jun 13:47:01 13:54:07 39° 262° (W) 14:00:47 435.910
AO-7 28 Jun 13:48:54 13:52:43 14° 51° (NE) 13:56:33 29.400- 29.500
DX 1 28 Jun 13:51:41 13:54:57 21° 291° (WNW) 13:58:13 434.975-435.025
YUBILEINY 28 Jun 14:05:43 14:14:00 48° 283° (WNW) 14:22:23 435.215
BEESAT 28 Jun 14:06:41 14:08:26 12° 92° (E) 14:10:11 436.000
ITUPSAT 1 28 Jun 14:07:35 14:09:21 12° 92° (E) 14:11:07 437.325
Oscar 19 28 Jun 14:12:55 14:17:48 44° 261° (W) 14:22:43 437.125/150
AIST 2 28 Jun 14:16:57 14:21:02 54° 59° (ENE) 14:25:06 435.215
Cosmos 2491 28 Jun 14:27:43 14:32:13 15° 281° (WNW) 14:36:43 435.465 / 435.565
Gurwin Techsat 1B 28 Jun 14:27:57 14:33:16 78° 258° (WSW) 14:38:36 435.225
ITAMSAT 1 28 Jun 14:34:58 14:39:50 42° 71° (ENE) 14:44:44 435.822/435.867
O/OREOS (USA 219) 28 Jun 14:36:11 14:37:34 11° 262° (W) 14:38:58 437.305
SO-50 28 Jun 14:54:35 14:57:54 18° 109° (ESE) 15:01:14 436.795
TISAT 1 28 Jun 14:54:48 14:58:22 28° 289° (WNW) 15:01:58 437.305
RS-15 28 Jun 15:09:55 15:18:16 21° 331° (NNW) 15:26:55 29.354- 29.394
SWISSCUBE 28 Jun 15:16:25 15:21:14 83° 103° (ESE) 15:26:00 437.505
Cosmos 2504 28 Jun 15:19:12 15:26:54 49° 282° (WNW) 15:35:11 435.465 / 435.565
AO-7 28 Jun 15:35:45 15:44:01 72° 70° (ENE) 15:52:21 29.400- 29.500
ISS 28 Jun 15:38:07 15:41:13 39° 38° (NE) 15:44:19 145.825
BEESAT 28 Jun 15:41:49 15:46:32 59° 286° (WNW) 15:51:13 436.000
ITUPSAT 1 28 Jun 15:42:47 15:47:30 59° 286° (WNW) 15:52:12 437.325
JUGNU 28 Jun 15:56:06 15:59:41 16° 172° (S) 16:03:14 437.505
AIST 2 28 Jun 15:57:58 15:59:00 11° 253° (WSW) 16:00:02 435.215
ITAMSAT 1 28 Jun 16:15:42 16:19:25 20° 266° (W) 16:23:10 435.822/435.867
MOZHAYETS 4 28 Jun 16:21:54 16:26:13 37° 98° (E) 16:30:29
KKS-1 28 Jun 16:32:07 16:36:29 53° 101° (E) 16:40:50 437.445
SO-50 28 Jun 16:33:21 16:38:02 45° 304° (WNW) 16:42:44 436.795
AIST 1 28 Jun 16:35:26 16:38:44 21° 89° (E) 16:42:01
HORYU 2 28 Jun 16:52:12 16:56:32 59° 75° (ENE) 17:00:54 437.375
STARS 28 Jun 17:04:25 17:08:47 61° 101° (E) 17:13:09 437.465
SRMSAT 28 Jun 17:11:41 17:14:06 12° 167° (SSE) 17:16:30 437.500
BRITE-PL 28 Jun 17:12:31 17:15:45 17° 69° (ENE) 17:18:51 437.365/2234.400
ISS 28 Jun 17:15:23 17:17:24 15° 232° (SW) 17:19:25 145.825
CUTE-I 28 Jun 17:16:44 17:19:52 16° 64° (ENE) 17:22:59 437.470
AO-7 28 Jun 17:31:29 17:37:21 21° 266° (W) 17:43:17 29.400- 29.500
RS-15 28 Jun 17:32:04 17:37:52 14° 8° (N) 17:43:43 29.354- 29.394
NOAA 15 28 Jun 17:42:59 17:47:54 40° 71° (ENE) 17:52:49 137.62
JUGNU 28 Jun 17:44:05 17:47:58 18° 183° (S) 17:51:51 437.505
GOMX 1 28 Jun 17:46:50 17:49:32 16° 69° (ENE) 17:52:08 467.674
CUBESAT XI-V 28 Jun 17:49:22 17:53:38 36° 98° (E) 17:57:52 437.345
MOZHAYETS 4 28 Jun 17:59:54 18:03:03 18° 293° (WNW) 18:06:11
Cosmos 2499 28 Jun 18:04:02 18:10:26 26° 82° (E) 18:17:08 435.465 / 435.565
LilacSat-2 28 Jun 18:05:17 18:08:43 35° 73° (ENE) 18:12:12 437.200
GONETS M04 28 Jun 18:07:04 18:15:06 43° 88° (E) 18:23:05
KKS-1 28 Jun 18:10:43 18:12:33 12° 295° (WNW) 18:14:23 437.445
AIST 1 28 Jun 18:12:37 18:16:10 24° 283° (WNW) 18:19:42
NOAA 18 28 Jun 18:14:06 18:19:29 65° 73° (ENE) 18:24:55 137.9125
Cubesat XI-IV 28 Jun 18:19:42 18:24:58 64° 74° (ENE) 18:30:17 437.490
HORYU 2 28 Jun 18:33:13 18:33:25 10° 268° (W) 18:33:37 437.375
STARS 28 Jun 18:43:33 18:44:35 11° 296° (WNW) 18:45:37 437.465
DOVE 4 28 Jun 18:45:48 18:49:34 29° 72° (ENE) 18:53:12 437.250
BRITE-PL 28 Jun 18:48:59 18:53:56 45° 261° (W) 18:58:32 437.365/2234.400
CUTE-I 28 Jun 18:54:07 18:59:21 59° 259° (WSW) 19:04:40 437.470
HO-68 28 Jun 18:54:57 19:00:12 23° 61° (ENE) 19:05:28 435.675
SRMSAT 28 Jun 18:58:41 19:02:31 18° 177° (S) 19:06:21 437.500
CANX-2 28 Jun 19:00:20 19:01:29 11° 65° (ENE) 19:02:39 2200.000
STRAND 1 28 Jun 19:11:21 19:14:44 18° 94° (E) 19:18:07 437.568
CUTE 1.7 + AOD 2 28 Jun 19:18:43 19:21:20 16° 68° (ENE) 19:23:58 437.475
CUSAT 1 28 Jun 19:21:28 19:24:42 40° 267° (W) 19:27:21 437.405
GOMX 1 28 Jun 19:22:52 19:27:20 42° 261° (W) 19:31:32 467.674
SEEDS 28 Jun 19:23:27 19:25:17 13° 66° (ENE) 19:27:07 437.485
NOAA 15 28 Jun 19:23:48 19:27:46 21° 265° (W) 19:31:44 137.62
CUBESAT XI-V 28 Jun 19:27:33 19:30:42 18° 292° (WNW) 19:33:51 437.345
JUGNU 28 Jun 19:33:48 19:36:14 13° 193° (SSW) 19:38:39 437.505
CINEMA 3 28 Jun 19:40:57 19:44:38 32° 72° (ENE) 19:48:19 145.822/145.860
LilacSat-2 28 Jun 19:41:37 19:43:09 12° 267° (W) 19:44:40 437.200
DANDE 28 Jun 19:44:16 19:48:56 85° 262° (W) 19:52:24 436.750
RS-15 28 Jun 19:45:19 19:56:07 33° 42° (NE) 20:06:48 29.354- 29.394
Cosmos 2499 28 Jun 19:54:45 20:02:49 59° 280° (W) 20:11:27 435.465 / 435.565
NOAA 18 28 Jun 19:57:56 20:00:32 13° 268° (W) 20:03:09 137.9125
AAUSAT CUBESAT 2 28 Jun 20:01:06 20:04:03 19° 69° (ENE) 20:07:01 437.432
Cubesat XI-IV 28 Jun 20:03:01 20:05:26 13° 268° (W) 20:07:51 437.490
GONETS M04 28 Jun 20:04:06 20:11:54 36° 285° (WNW) 20:19:44
Oscar 11 28 Jun 20:15:56 20:17:05 11° 65° (ENE) 20:18:15 145.826/435.025
FUNcube-1 28 Jun 20:23:39 20:24:52 11° 65° (ENE) 20:26:04 145.935
M-CUBED/EXP-1 PRIME 28 Jun 20:23:49 20:26:27 23° 67° (ENE) 20:29:05 437.505
DOVE 4 28 Jun 20:24:08 20:27:15 19° 265° (W) 20:30:18 437.250
AO-85 28 Jun 20:25:07 20:28:48 19° 108° (ESE) 20:32:26 145.980
UWE-3 28 Jun 20:25:23 20:28:25 20° 69° (ENE) 20:31:30 435.000/436.395/437.385
CANX-2 28 Jun 20:32:37 20:36:48 56° 260° (W) 20:41:02 2200.000
COMPASS 1 28 Jun 20:33:56 20:38:04 60° 76° (ENE) 20:42:14 437.405
HO-68 28 Jun 20:40:15 20:47:18 63° 257° (WSW) 20:54:25 435.675
SRMSAT 28 Jun 20:47:28 20:50:57 16° 188° (S) 20:54:25 437.500
STRAND 1 28 Jun 20:49:11 20:54:06 46° 288° (WNW) 20:58:58 437.568
PRISM 28 Jun 20:50:08 20:53:29 24° 97° (E) 20:56:48 437.425
CUTE 1.7 + AOD 2 28 Jun 20:52:53 20:56:50 37° 262° (W) 21:00:50 437.475
SEEDS 28 Jun 20:56:26 21:00:32 47° 261° (W) 21:04:39 437.485
CUBEBUG 2 28 Jun 21:13:24 21:17:31 69° 259° (W) 21:21:45 437.445
AUBIESAT-1 28 Jun 21:18:01 21:21:17 67° 253° (WSW) 21:24:34 437.475
HUMSAT D 28 Jun 21:18:15 21:19:13 11° 65° (ENE) 21:20:12 437.325/437.525
CINEMA 3 28 Jun 21:19:17 21:21:51 16° 266° (W) 21:24:25 145.822/145.860
AAUSAT CUBESAT 2 28 Jun 21:35:39 21:39:18 29° 263° (W) 21:42:59 437.432
ZACube-1 28 Jun 21:38:53 21:43:04 83° 259° (W) 21:47:21 437.345
DELFI C3 28 Jun 21:45:29 21:49:23 53° 75° (ENE) 21:53:19 145.870
Oscar 11 28 Jun 21:48:25 21:52:40 58° 260° (W) 21:56:58 145.826/435.025
FUNcube-1 28 Jun 21:56:30 22:00:34 53° 260° (W) 22:04:45 145.935
RS-15 28 Jun 21:57:30 22:09:50 77° 245° (WSW) 22:21:57 29.354- 29.394
M-CUBED/EXP-1 PRIME 28 Jun 21:59:23 22:01:02 13° 260° (W) 22:02:41 437.505
UWE-3 28 Jun 22:01:07 22:04:41 27° 264° (W) 22:08:19 435.000/436.395/437.385
AO-85 28 Jun 22:03:35 22:08:54 54° 302° (WNW) 22:14:06 145.980
ANTELSAT 28 Jun 22:21:35 22:24:53 19° 94° (E) 22:28:11 437.575/2403.000
PRISM 28 Jun 22:25:33 22:28:39 21° 291° (WNW) 22:31:43 437.425
YUBILEINY 28 Jun 22:26:33 22:29:45 12° 63° (ENE) 22:32:56 435.215
ESTCUBE 1 28 Jun 22:45:29 22:48:50 21° 69° (ENE) 22:52:12 437.505/2401.250
AISAT 28 Jun 22:49:49 22:52:10 14° 66° (ENE) 22:54:32 437.250
HUMSAT D 28 Jun 22:50:14 22:54:18 54° 260° (W) 22:58:26 437.325/437.525
DX 1 28 Jun 23:08:29 23:11:18 17° 67° (ENE) 23:14:07 434.975-435.025
TIGRISAT 28 Jun 23:12:01 23:16:40 67° 101° (E) 23:21:20 435.000
UNISAT 6 28 Jun 23:17:13 23:21:54 81° 102° (ESE) 23:26:36 437.425
NANOSAT C BR1 28 Jun 23:28:32 23:30:44 14° 93° (E) 23:32:56 145.865
QB50P1 28 Jun 23:31:17 23:33:56 16° 94° (E) 23:36:34 145.935-145.965
Cosmos 2491 28 Jun 23:31:43 23:37:27 20° 81° (E) 23:43:09 435.465 / 435.565
CUBEBUG 1 28 Jun 23:34:22 23:38:33 47° 74° (ENE) 23:42:44 437.445
POPSAT HIP 1 28 Jun 23:34:22 23:37:12 17° 95° (E) 23:40:01 437.405
VELOX 1 28 Jun 23:43:00 23:47:19 55° 74° (ENE) 23:51:38 145.980
QB50P2 28 Jun 23:46:07 23:49:42 26° 97° (E) 23:53:16 145.880/145.840
DUCHIFAT 1 28 Jun 23:47:59 23:51:20 22° 96° (E) 23:54:40 145.980
POLYITAN 1 28 Jun 23:48:43 23:52:20 26° 97° (E) 23:55:57 437.675
50 SAT 28 Jun 23:55:47 23:59:29 88° 257° (WSW) 00:03:14 437.505
ANTELSAT 28 Jun 23:57:22 00:01:38 36° 288° (WNW) 00:05:56 437.575/2403.000
TISAT 1 29 Jun 00:11:16 00:11:28 10° 65° (ENE) 00:11:40 437.305
RS-15 29 Jun 00:14:06 00:20:13 15° 263° (W) 00:26:18 29.354- 29.394
YUBILEINY 29 Jun 00:19:13 00:28:05 75° 83° (E) 00:36:54 435.215
ESTCUBE 1 29 Jun 00:21:22 00:25:25 32° 263° (W) 00:29:28 437.505/2401.250
UKube-1 29 Jun 00:22:17 00:26:36 82° 257° (WSW) 00:30:55 .
SPROUT 29 Jun 00:23:21 00:27:32 66° 76° (ENE) 00:31:46 437.525
AISAT 29 Jun 00:24:02 00:28:15 44° 261° (W) 00:32:27 437.250
BUGSAT 1 29 Jun 00:42:09 00:46:04 42° 99° (E) 00:50:00 437.445
DX 1 29 Jun 00:43:12 00:47:11 35° 261° (W) 00:51:11 434.975-435.025
TIGRISAT 29 Jun 00:51:23 00:52:45 11° 295° (WNW) 00:54:08 435.000
JAS-2 29 Jun 01:01:06 01:06:01 33° 96° (E) 01:10:39 435.910
NANOSAT C BR1 29 Jun 01:02:37 01:06:36 40° 287° (WNW) 01:10:34 145.865
QB50P1 29 Jun 01:05:54 01:09:46 35° 288° (WNW) 01:13:39 145.935-145.965
SO-50 29 Jun 01:07:49 01:12:26 67° 59° (ENE) 01:16:53 436.795
POPSAT HIP 1 29 Jun 01:09:12 01:13:01 33° 288° (WNW) 01:16:50 437.405
BEESAT 29 Jun 01:11:33 01:12:19 10° 63° (ENE) 01:13:05 436.000
ITUPSAT 1 29 Jun 01:12:38 01:13:36 11° 63° (ENE) 01:14:32 437.325
CUBEBUG 1 29 Jun 01:13:15 01:15:02 12° 267° (W) 01:16:50 437.445
Cosmos 2504 29 Jun 01:15:20 01:24:01 55° 79° (E) 01:32:14 435.465 / 435.565
QB50P2 29 Jun 01:22:02 01:25:21 22° 290° (WNW) 01:28:39 145.880/145.840
VELOX 1 29 Jun 01:23:06 01:24:03 11° 268° (W) 01:25:02 145.980
DUCHIFAT 1 29 Jun 01:23:27 01:26:55 25° 290° (WNW) 01:30:24 145.980
Cosmos 2491 29 Jun 01:24:31 01:33:17 74° 278° (W) 01:42:03 435.465 / 435.565
POLYITAN 1 29 Jun 01:24:42 01:27:58 22° 290° (WNW) 01:31:15 437.675
TISAT 1 29 Jun 01:42:30 01:46:34 57° 259° (W) 01:50:42 437.305
BEESAT 2 29 Jun 01:50:15 01:51:53 12° 108° (ESE) 01:53:31 435.950
PCSat 29 Jun 02:08:47 02:14:10 77° 114° (ESE) 02:19:37 145.827
YUBILEINY 29 Jun 02:18:05 02:23:50 20° 280° (W) 02:29:37 435.215
BUGSAT 1 29 Jun 02:19:07 02:21:03 13° 293° (WNW) 02:22:59 437.445
SWISSCUBE 29 Jun 02:19:26 02:24:10 65° 75° (ENE) 02:28:57 437.505
Oscar 19 29 Jun 02:27:20 02:32:29 85° 103° (ESE) 02:37:36 437.125/150
BEESAT 29 Jun 02:44:39 02:49:25 75° 257° (WSW) 02:54:13 436.000
ITUPSAT 1 29 Jun 02:45:58 02:50:44 74° 257° (WSW) 02:55:34 437.325
JAS-2 29 Jun 02:46:31 02:50:56 25° 294° (WNW) 02:55:06 435.910
BEESAT 3 29 Jun 02:46:37 02:50:30 65° 300° (WNW) 02:54:25 437.485
Gurwin Techsat 1B 29 Jun 02:47:29 02:52:42 55° 100° (E) 02:57:54 435.225
ITAMSAT 1 29 Jun 02:51:52 02:55:35 19° 94° (E) 02:59:15 435.822/435.867
SO-50 29 Jun 02:51:58 02:52:13 10° 254° (WSW) 02:52:30 436.795
O/OREOS (USA 219) 29 Jun 03:03:09 03:07:38 69° 290° (WNW) 03:12:07 437.305
Cosmos 2504 29 Jun 03:09:38 03:16:46 29° 277° (W) 03:23:40 435.465 / 435.565
MOZHAYETS 4 29 Jun 03:20:54 03:24:39 25° 70° (ENE) 03:28:27
BEESAT 2 29 Jun 03:25:30 03:29:17 43° 303° (WNW) 03:33:06 435.950
KKS-1 29 Jun 03:27:10 03:31:06 33° 71° (ENE) 03:35:03 437.445
Cosmos 2491 29 Jun 03:28:43 03:31:39 12° 297° (WNW) 03:34:34 435.465 / 435.565
AO-7 29 Jun 03:41:53 03:48:51 29° 97° (E) 03:55:45 29.400- 29.500
PCSat 29 Jun 03:55:10 03:58:10 15° 312° (NW) 04:01:11 145.827
STARS 29 Jun 03:58:00 04:01:58 35° 72° (ENE) 04:05:55 437.465
SWISSCUBE 29 Jun 04:01:26 04:02:21 10° 269° (W) 04:03:17 437.505
Oscar 19 29 Jun 04:10:41 04:11:02 10° 299° (WNW) 04:11:23 437.125/150
AIST 2 29 Jun 04:11:59 04:15:18 24° 111° (ESE) 04:18:38 435.215
AIST 1 29 Jun 04:21:56 04:26:07 54° 81° (E) 04:30:17
GONETS M04 29 Jun 04:22:35 04:27:54 17° 67° (ENE) 04:33:10
Gurwin Techsat 1B 29 Jun 04:28:53 04:32:09 17° 296° (WNW) 04:35:26 435.225
ITAMSAT 1 29 Jun 04:30:15 04:35:11 43° 288° (WNW) 04:40:04 435.822/435.867
HORYU 2 29 Jun 04:47:46 04:50:16 15° 94° (E) 04:52:44 437.375
CUBESAT XI-V 29 Jun 04:49:42 04:53:34 26° 70° (ENE) 04:57:26 437.345
MOZHAYETS 4 29 Jun 04:57:48 05:01:41 26° 264° (W) 05:05:36
KKS-1 29 Jun 05:04:37 05:07:42 18° 265° (W) 05:10:48 437.445
PHONESAT 2.4 29 Jun 05:33:02 05:35:20 19° 146° (SE) 05:37:38 2401.200-2431.200
AO-7 29 Jun 05:33:46 05:41:53 56° 293° (WNW) 05:49:57 29.400- 29.500
STARS 29 Jun 05:35:36 05:38:23 17° 266° (W) 05:41:12 437.465
AIST 2 29 Jun 05:50:14 05:53:40 25° 307° (NW) 05:57:08 435.215
Cosmos 2499 29 Jun 05:50:19 05:58:36 45° 76° (ENE) 06:06:20 435.465 / 435.565
NOAA 15 29 Jun 06:02:11 06:05:52 19° 94° (E) 06:09:32 137.62
GONETS M04 29 Jun 06:16:59 06:25:45 85° 265° (W) 06:34:32
HORYU 2 29 Jun 06:22:43 06:26:58 43° 287° (WNW) 06:31:13 437.375
STRAND 1 29 Jun 06:24:18 06:27:53 19° 66° (ENE) 06:31:27 437.568
CUBESAT XI-V 29 Jun 06:26:51 06:30:48 27° 264° (W) 06:34:47 437.345
CUSAT 1 29 Jun 06:35:28 06:41:41 27° 90° (E) 06:47:16 437.405
AO-85 29 Jun 06:39:11 06:43:33 54° 58° (ENE) 06:47:32 145.980
NOAA 18 29 Jun 06:39:38 06:44:43 36° 99° (E) 06:49:46 137.9125
Cubesat XI-IV 29 Jun 06:40:32 06:45:23 33° 98° (E) 06:50:12 437.490
BRITE-PL 29 Jun 06:56:44 07:00:52 72° 100° (E) 07:05:06 437.365/2234.400
DANDE 29 Jun 07:03:18 07:09:32 24° 86° (E) 07:15:32 436.750
PHONESAT 2.4 29 Jun 07:08:41 07:11:43 67° 339° (NNW) 07:14:47 2401.200-2431.200
CUTE-I 29 Jun 07:14:19 07:19:42 74° 102° (ESE) 07:25:03 437.470
LilacSat-2 29 Jun 07:15:26 07:19:20 88° 102° (ESE) 07:23:13 437.200
GOMX 1 29 Jun 07:27:00 07:31:14 67° 101° (E) 07:35:40 467.674
AO-7 29 Jun 07:32:09 07:32:48 10° 312° (NW) 07:33:27 29.400- 29.500
PRISM 29 Jun 07:38:01 07:39:50 13° 66° (ENE) 07:41:38 437.425
CINEMA 3 29 Jun 07:40:18 07:41:35 11° 92° (E) 07:42:53 145.822/145.860
NOAA 15 29 Jun 07:40:51 07:45:47 43° 289° (WNW) 07:50:43 137.62
Cosmos 2499 29 Jun 07:43:52 07:51:23 34° 275° (W) 07:58:31 435.465 / 435.565
STRAND 1 29 Jun 08:01:47 08:06:40 44° 261° (W) 08:11:36 437.568
HO-68 29 Jun 08:11:56 08:18:09 31° 97° (E) 08:24:19 435.675
ISS 29 Jun 08:15:03 08:18:16 73° 137° (SE) 08:21:32 145.825
CUSAT 1 29 Jun 08:15:50 08:23:30 54° 280° (W) 08:30:06 437.405
GONETS M04 29 Jun 08:17:27 08:21:10 13° 282° (WNW) 08:24:53
NOAA 18 29 Jun 08:20:36 08:25:09 27° 293° (WNW) 08:29:42 137.9125
Cubesat XI-IV 29 Jun 08:20:49 08:25:16 27° 292° (WNW) 08:29:42 437.490
CANX-2 29 Jun 08:21:06 08:24:54 30° 97° (E) 08:28:39 2200.000
COMPASS 1 29 Jun 08:22:02 08:23:42 12° 92° (E) 08:25:22 437.405
AO-85 29 Jun 08:22:33 08:23:18 10° 255° (WSW) 08:24:01 145.980
DOVE 4 29 Jun 08:23:55 08:28:15 61° 284° (WNW) 08:32:48 437.250
CUTE 1.7 + AOD 2 29 Jun 08:40:43 08:44:50 45° 99° (E) 08:48:54 437.475
DANDE 29 Jun 08:43:25 08:51:48 70° 280° (W) 08:59:42 436.750
SEEDS 29 Jun 08:43:37 08:47:28 34° 97° (E) 08:51:17 437.485
PHONESAT 2.4 29 Jun 08:45:53 08:48:38 29° 356° (N) 08:51:22 2401.200-2431.200
CUTE-I 29 Jun 08:56:46 08:59:03 13° 298° (WNW) 09:01:22 437.470
CUBEBUG 2 29 Jun 09:07:09 09:11:19 32° 97° (E) 09:15:31 437.445
PRISM 29 Jun 09:10:43 09:14:42 45° 260° (W) 09:18:42 437.425
CINEMA 3 29 Jun 09:14:25 09:18:58 61° 284° (WNW) 09:23:42 145.822/145.860
ANTELSAT 29 Jun 09:19:47 09:20:43 11° 64° (ENE) 09:21:39 437.575/2403.000
AAUSAT CUBESAT 2 29 Jun 09:20:32 09:24:37 51° 100° (E) 09:28:37 437.432
ZACube-1 29 Jun 09:30:39 09:34:26 25° 96° (E) 09:38:12 437.345
M-CUBED/EXP-1 PRIME 29 Jun 09:38:30 09:42:14 36° 104° (ESE) 09:46:13 437.505
Oscar 11 29 Jun 09:39:02 09:42:55 31° 97° (E) 09:46:47 145.826/435.025
FUNcube-1 29 Jun 09:47:28 09:51:41 36° 98° (E) 09:55:52 145.935
UWE-3 29 Jun 09:52:41 09:57:18 71° 101° (E) 10:01:57 435.000/436.395/437.385
ISS 29 Jun 09:53:16 09:55:03 14° 332° (NNW) 09:56:50 145.825
COMPASS 1 29 Jun 09:55:29 09:59:28 43° 286° (WNW) 10:03:24 437.405
CANX-2 29 Jun 09:57:30 10:00:30 19° 291° (WNW) 10:03:30 2200.000
HO-68 29 Jun 09:59:11 10:05:56 45° 292° (WNW) 10:12:39 435.675
TIGRISAT 29 Jun 10:07:47 10:11:42 36° 72° (ENE) 10:15:43 435.000
RS-15 29 Jun 10:08:14 10:15:58 22° 100° (E) 10:23:55 29.354- 29.394
UNISAT 6 29 Jun 10:12:59 10:17:04 45° 73° (ENE) 10:21:15 437.425
CUTE 1.7 + AOD 2 29 Jun 10:18:14 10:20:14 13° 293° (WNW) 10:22:13 437.475
SEEDS 29 Jun 10:20:10 10:22:52 17° 292° (WNW) 10:25:34 437.485
PHONESAT 2.4 29 Jun 10:22:44 10:25:38 38° 13° (NNE) 10:28:33 2401.200-2431.200
DANDE 29 Jun 10:32:20 10:35:39 13° 295° (WNW) 10:38:52 436.750
AUBIESAT-1 29 Jun 10:32:44 10:36:41 57° 289° (WNW) 10:40:54 437.475
HUMSAT D 29 Jun 10:37:02 10:40:48 29° 97° (E) 10:44:33 437.325/437.525
QB50P2 29 Jun 10:37:10 10:39:11 13° 67° (ENE) 10:41:13 145.880/145.840
DUCHIFAT 1 29 Jun 10:38:51 10:40:10 11° 66° (ENE) 10:41:27 145.980
POLYITAN 1 29 Jun 10:39:43 10:41:49 14° 67° (ENE) 10:43:55 437.675
CUBEBUG 2 29 Jun 10:44:09 10:47:43 22° 290° (WNW) 10:51:19 437.445
ANTELSAT 29 Jun 10:52:37 10:56:50 59° 259° (W) 11:01:10 437.575/2403.000
AAUSAT CUBESAT 2 29 Jun 10:58:24 10:59:35 11° 294° (WNW) 11:00:46 437.432
PCSat 29 Jun 11:00:14 11:05:02 31° 56° (NE) 11:09:48 145.827
DELFI C3 29 Jun 11:00:57 11:04:51 56° 285° (WNW) 11:08:44 145.870
ZACube-1 29 Jun 11:06:48 11:10:35 26° 289° (WNW) 11:14:24 437.345
BEESAT 3 29 Jun 11:07:10 11:10:28 25° 54° (NE) 11:13:45 437.485
JAS-2 29 Jun 11:11:03 11:14:56 15° 61° (ENE) 11:18:39 435.910
M-CUBED/EXP-1 PRIME 29 Jun 11:14:02 11:16:32 16° 295° (WNW) 11:19:07 437.505
Oscar 11 29 Jun 11:15:44 11:18:48 19° 291° (WNW) 11:21:52 145.826/435.025
YUBILEINY 29 Jun 11:24:15 11:28:49 15° 78° (ENE) 11:33:22 435.215
FUNcube-1 29 Jun 11:24:28 11:27:37 19° 292° (WNW) 11:30:46 145.935
CUBEBUG 1 29 Jun 11:28:38 11:29:44 11° 92° (E) 11:30:50 437.445
BUGSAT 1 29 Jun 11:29:40 11:32:31 19° 69° (ENE) 11:35:22 437.445
UWE-3 29 Jun 11:32:28 11:33:08 10° 295° (WNW) 11:33:48 435.000/436.395/437.385
VELOX 1 29 Jun 11:38:00 11:40:07 13° 93° (E) 11:42:14 145.980
Cosmos 2491 29 Jun 11:39:05 11:47:26 48° 78° (ENE) 11:55:45 435.465 / 435.565
O/OREOS (USA 219) 29 Jun 11:39:26 11:40:57 11° 57° (ENE) 11:42:28 437.305
TIGRISAT 29 Jun 11:45:58 11:48:31 15° 267° (W) 11:51:06 435.000
BEESAT 2 29 Jun 11:46:23 11:50:06 36° 56° (NE) 11:53:47 435.950
NANOSAT C BR1 29 Jun 11:51:00 11:55:11 86° 262° (W) 11:59:23 145.865
UNISAT 6 29 Jun 11:52:12 11:54:02 12° 268° (W) 11:55:52 437.425
QB50P1 29 Jun 11:54:31 11:58:41 74° 259° (WSW) 12:02:53 145.935-145.965
POPSAT HIP 1 29 Jun 11:57:51 12:02:00 68° 259° (W) 12:06:11 437.405
PHONESAT 2.4 29 Jun 11:59:20 12:02:18 46° 208° (SSW) 12:05:16 2401.200-2431.200
QB50P2 29 Jun 12:10:36 12:14:35 43° 261° (W) 12:18:36 145.880/145.840
DUCHIFAT 1 29 Jun 12:11:19 12:15:22 51° 260° (W) 12:19:26 145.980
HUMSAT D 29 Jun 12:13:03 12:16:12 20° 291° (WNW) 12:19:21 437.325/437.525
POLYITAN 1 29 Jun 12:13:15 12:17:13 42° 261° (W) 12:21:13 437.675
UKube-1 29 Jun 12:13:20 12:16:35 21° 96° (E) 12:19:49 .
SPROUT 29 Jun 12:13:54 12:16:17 14° 93° (E) 12:18:39 437.525
RS-15 29 Jun 12:15:25 12:26:45 85° 299° (WNW) 12:38:49 29.354- 29.394
ESTCUBE 1 29 Jun 12:16:27 12:20:56 68° 102° (ESE) 12:25:22 437.505/2401.250
AISAT 29 Jun 12:17:12 12:21:22 41° 99° (E) 12:25:31 437.250
DX 1 29 Jun 12:34:08 12:38:19 47° 100° (E) 12:42:29 434.975-435.025
PCSat 29 Jun 12:43:37 12:48:21 31° 252° (WSW) 12:53:03 145.827
BEESAT 3 29 Jun 12:44:55 12:48:01 22° 249° (WSW) 12:51:07 437.485
JAS-2 29 Jun 12:51:22 12:59:07 86° 75° (ENE) 13:06:14 435.910
